Location: Central Falls
(41.8900°N, 71.3929°W)
Time: 11:59:08
(UTC+00:00)

A-11 Canister half - Pass Details

Date: 14 December 2023
Orbit: 1512 x 1687 km, 47.2° (Epoch: 20 February)

Event Time Altitude Azimuth Distance (km) Brightness Sun altitude
Rises 00:17:06 0° 189° (S) 4,643 11.7 -33.0°
Reaches altitude 10° 00:20:52 10° 176° (S) 3,675 10.9 -33.7°
Enters shadow 00:23:02 16° 165° (SSE) 3,227 10.5 -34.1°
Maximum altitude 00:27:43 24° 128° (SE) 2,788 - -35.0°
Drops below altitude 10° 00:34:41 10° 79° (E) 3,766 - -36.3°
Sets 00:38:35 0° 67° (ENE) 4,783 - -37.0°
